This is the latest recevied weather packets stored in our database for station/object WA3NOA-2. If no packets are shown the sender has not sent any weather packets the latest 10 day(s).
| Time | Temp. | Humidity | Pressure | Rain* | Wind** | Luminosity | Snow |
|---|---|---|---|---|---|---|---|
| 1778248326 | 15° C | 52% | 1007.9 hPa | 0 mm | - | - | - |
| 1778248089 | 14.44° C | 53% | 1007.9 hPa | 0 mm | - | - | - |
| 1778248026 | 14.44° C | 52% | 1007.8 hPa | 0 mm | - | - | - |
| 1778247726 | 14.44° C | 52% | 1007.8 hPa | 0 mm | - | - | - |
| 1778247426 | 13.89° C | 52% | 1007.8 hPa | 0 mm | - | - | - |
| 1778247188 | 13.89° C | 56% | 1007.9 hPa | 0 mm | - | - | - |
| 1778247126 | 13.89° C | 58% | 1007.9 hPa | 0 mm | - | - | - |
| 1778246826 | 13.33° C | 56% | 1007.9 hPa | 0 mm | - | - | - |
| 1778246526 | 13.33° C | 58% | 1008 hPa | 0 mm | - | - | - |
| 1778246287 | 12.78° C | 58% | 1007.9 hPa | 0 mm | - | - | - |
| 1778246226 | 12.78° C | 58% | 1008 hPa | 0 mm | - | - | - |
| 1778245926 | 12.78° C | 57% | 1008.1 hPa | 0 mm | - | - | - |
| 1778245626 | 13.33° C | 56% | 1007.9 hPa | 0 mm | - | - | - |
| 1778245388 | 13.89° C | 57% | 1007.9 hPa | 0 mm | - | - | - |
| 1778245326 | 13.33° C | 56% | 1007.9 hPa | 0 mm | - | - | - |
| 1778245026 | 12.78° C | 58% | 1007.8 hPa | 0 mm | - | - | - |
| 1778244726 | 12.78° C | 61% | 1007.8 hPa | 0 mm | - | - | - |
| 1778244489 | 12.78° C | 60% | 1008 hPa | 0 mm | - | - | - |
| 1778244426 | 12.78° C | 61% | 1007.9 hPa | 0 mm | - | - | - |
| 1778244126 | 12.78° C | 60% | 1008 hPa | 0 mm | - | - | - |
| 1778243826 | 12.22° C | 63% | 1008 hPa | 0 mm | - | - | - |
| 1778243588 | 12.22° C | 64% | 1007.9 hPa | 0 mm | - | - | - |
| 1778243526 | 12.22° C | 64% | 1008 hPa | 0 mm | - | - | - |
| 1778243226 | 11.67° C | 69% | 1007.9 hPa | 0 mm | - | - | - |
| 1778242926 | 11.67° C | 68% | 1007.8 hPa | 0 mm | - | - | - |
* Rain latest hour (hover to see other rain measurements)
** Current wind speed in m/s (hover to see current wind gust speed)